Location: Las Vegas
(36.1750°N, 115.1360°W)
Time: 13:52:02
(UTC-08:00)

Amateur Radio Satellites - All Passes

Search period start: 25 November 2014 13:22
Search period end: 26 November 2014 13:22
Location: Las Vegas, 36.1750°N, 115.1360°W

Satellite Date Start Highest point End Downlink Frequencies (MHz)
Time Altitude Azimuth
AO-7 25 Nov 13:23:41 13:29:24 21° 55° (NE) 13:35:07 29.400- 29.500
Gurwin Techsat 1B 25 Nov 13:26:03 13:31:19 68° 74° (ENE) 13:36:36 435.225
Oscar 19 25 Nov 13:47:24 13:50:23 16° 267° (W) 13:53:23 437.125/150
AUBIESAT-1 25 Nov 13:47:26 13:51:55 36° 294° (WNW) 13:56:18 437.475
RS-15 25 Nov 13:48:51 13:56:05 20° 101° (E) 14:03:13 29.354- 29.394
M-CUBED/EXP-1 PRIME 25 Nov 13:52:26 13:56:43 30° 295° (WNW) 14:00:55 437.505
MaSat-1 25 Nov 13:54:09 13:56:24 19° 109° (ESE) 13:58:32 437.345
KKS-1 25 Nov 13:56:40 14:00:58 49° 100° (E) 14:05:16 437.445
HORYU 2 25 Nov 14:08:55 14:13:20 81° 76° (ENE) 14:17:47 437.375
ITUPSAT 1 25 Nov 14:17:16 14:20:53 22° 293° (WNW) 14:24:28 437.325
SWISSCUBE 25 Nov 14:29:11 14:31:54 15° 295° (WNW) 14:34:36 437.505
JAS-2 25 Nov 14:32:23 14:37:06 18° 58° (ENE) 14:41:53 435.910
ITAMSAT 1 25 Nov 14:39:59 14:42:21 13° 268° (W) 14:44:43 435.822/435.867
PHONESAT 2.4 25 Nov 14:45:37 14:49:20 83° 158° (SSE) 14:53:04 2401.200-2431.200
STARS 25 Nov 14:53:36 14:57:52 53° 286° (WNW) 15:02:08 437.465
YUBILEINY 25 Nov 14:55:31 15:02:29 28° 277° (W) 15:09:25 435.215
VERMONT LUNAR 25 Nov 14:59:00 15:02:36 65° 344° (NNW) 15:06:13 437.305
Gurwin Techsat 1B 25 Nov 15:09:28 15:11:42 13° 269° (W) 15:13:56 435.225
AO-7 25 Nov 15:12:55 15:21:12 82° 253° (WSW) 15:29:34 29.400- 29.500
MaSat-1 25 Nov 15:29:16 15:30:52 14° 299° (WNW) 15:32:24 437.345
KKS-1 25 Nov 15:34:58 15:37:10 14° 295° (WNW) 15:39:22 437.445
O/OREOS (USA 219) 25 Nov 15:35:06 15:39:35 79° 70° (ENE) 15:44:04 437.305
RS-15 25 Nov 15:55:54 16:06:56 86° 299° (WNW) 16:17:56 29.354- 29.394
JAS-2 25 Nov 16:13:25 16:20:58 88° 76° (ENE) 16:28:54 435.910
CUTE-I 25 Nov 16:15:16 16:19:28 24° 67° (ENE) 16:23:40 437.470
PHONESAT 2.4 25 Nov 16:24:46 16:28:20 43° 354° (N) 16:31:54 2401.200-2431.200
MOZHAYETS 4 25 Nov 16:34:15 16:38:55 70° 101° (ESE) 16:43:33
VERMONT LUNAR 25 Nov 16:37:58 16:41:24 39° 0° (N) 16:44:51 437.305
AO-7 25 Nov 17:11:31 17:15:01 13° 270° (W) 17:18:32 29.400- 29.500
Cubesat XI-IV 25 Nov 17:12:15 17:17:38 85° 76° (ENE) 17:23:01 437.490
CUTE-I 25 Nov 17:54:17 17:59:16 39° 262° (W) 18:04:16 437.470
PRISM 25 Nov 17:54:59 17:59:14 83° 284° (WNW) 18:03:26 437.425
PCSat 25 Nov 18:02:26 18:06:23 21° 106° (ESE) 18:10:20 145.827
JAS-2 25 Nov 18:02:29 18:06:48 16° 272° (W) 18:11:14 435.910
PHONESAT 2.4 25 Nov 18:03:51 18:07:30 51° 12° (NNE) 18:11:08 2401.200-2431.200
HO-68 25 Nov 18:04:40 18:08:26 15° 56° (NE) 18:12:12 435.675
RS-15 25 Nov 18:12:28 18:21:02 25° 324° (NW) 18:29:42 29.354- 29.394
MOZHAYETS 4 25 Nov 18:14:21 18:15:31 11° 296° (WNW) 18:16:40
CUBESAT XI-V 25 Nov 18:14:38 18:19:14 56° 100° (E) 18:23:46 437.345
VERMONT LUNAR 25 Nov 18:16:34 18:20:11 69° 17° (NNE) 18:23:48 437.305
STRAND 1 25 Nov 18:36:45 18:41:53 85° 103° (ESE) 18:46:58 437.568
GONETS M04 25 Nov 18:47:47 18:56:33 62° 80° (E) 19:05:10
AIST 1 25 Nov 18:53:40 18:57:53 48° 93° (E) 19:02:08
CANX-2 25 Nov 19:02:08 19:05:19 21° 69° (ENE) 19:08:30 2200.000
BEESAT 3 25 Nov 19:03:33 19:07:17 36° 114° (ESE) 19:11:05 437.485
COMPASS 1 25 Nov 19:07:47 19:10:20 16° 68° (ENE) 19:12:55 437.405
GOMX 1 25 Nov 19:18:04 19:21:49 23° 70° (ENE) 19:25:23 467.674
BEESAT 2 25 Nov 19:18:30 19:22:26 48° 115° (ESE) 19:26:27 435.950
CUTE 1.7 & AOD 2 25 Nov 19:35:50 19:39:52 48° 74° (ENE) 19:43:56 437.475
PHONESAT 2.4 25 Nov 19:42:43 19:46:20 49° 207° (SSW) 19:49:54 2401.200-2431.200
BRITE-PL 25 Nov 19:43:54 19:48:57 63° 76° (ENE) 19:53:37 437.365/2234.400
PCSat 25 Nov 19:44:14 19:49:24 46° 301° (WNW) 19:54:38 145.827
HO-68 25 Nov 19:47:54 19:55:05 86° 73° (ENE) 20:02:20 435.675
AIST 2 25 Nov 19:51:34 19:55:40 54° 116° (ESE) 19:59:50 435.215
CUBESAT XI-V 25 Nov 19:53:57 19:56:09 13° 295° (WNW) 19:58:19 437.345
VERMONT LUNAR 25 Nov 19:55:22 19:58:30 28° 212° (SSW) 20:01:37 437.305
UKube-1 25 Nov 20:00:49 20:04:30 27° 70° (ENE) 20:08:12 .
FUNcube-1 25 Nov 20:05:16 20:07:17 13° 67° (ENE) 20:09:18 145.935
SEEDS 25 Nov 20:09:03 20:13:13 77° 258° (WSW) 20:17:26 437.485
Oscar 11 25 Nov 20:11:56 20:15:56 39° 73° (ENE) 20:19:57 145.826/435.025
DOVE 4 25 Nov 20:14:00 20:18:40 70° 76° (ENE) 20:23:04 437.250
STRAND 1 25 Nov 20:19:33 20:20:17 10° 299° (WNW) 20:21:02 437.568
AAUSAT CUBESAT 2 25 Nov 20:26:26 20:30:33 64° 259° (W) 20:34:41 437.432
CUBEBUG 2 25 Nov 20:28:02 20:31:55 34° 73° (ENE) 20:35:43 437.445
UWE-3 25 Nov 20:28:55 20:32:37 30° 72° (ENE) 20:36:17 435.000/436.395/437.385
DELFI C3 25 Nov 20:32:54 20:36:53 59° 75° (ENE) 20:40:54 145.870
AIST 1 25 Nov 20:33:57 20:35:49 12° 288° (WNW) 20:37:41
RS-15 25 Nov 20:34:52 20:39:20 13° 1° (N) 20:43:51 29.354- 29.394
DX 1 25 Nov 20:35:21 20:39:43 72° 75° (ENE) 20:44:06 434.975-435.025
CANX-2 25 Nov 20:37:30 20:41:05 27° 264° (W) 20:44:42 2200.000
50 SAT 25 Nov 20:40:46 20:43:18 16° 68° (ENE) 20:45:50 437.505
COMPASS 1 25 Nov 20:41:56 20:45:46 35° 262° (W) 20:49:37 437.405
BEESAT 3 25 Nov 20:42:37 20:45:37 19° 310° (NW) 20:48:38 437.485
GONETS M04 25 Nov 20:45:54 20:52:35 25° 278° (W) 20:59:15
HUMSAT D 25 Nov 20:49:32 20:52:57 26° 71° (ENE) 20:56:22 437.325/437.525
CINEMA 3 25 Nov 20:51:45 20:56:12 73° 258° (WSW) 21:00:28 145.822/145.860
GOMX 1 25 Nov 20:55:30 20:59:47 30° 262° (W) 21:03:50 467.674
BEESAT 2 25 Nov 20:58:30 21:01:00 15° 312° (NW) 21:03:32 435.950
ZACube-1 25 Nov 21:03:54 21:08:06 68° 76° (ENE) 21:12:16 437.345
ESTCUBE 1 25 Nov 21:03:58 21:06:44 16° 66° (ENE) 21:09:30 437.505/2401.250
VELOX 1 25 Nov 21:04:24 21:08:38 43° 73° (ENE) 21:12:53 145.980
CUTE 1.7 & AOD 2 25 Nov 21:14:34 21:16:03 12° 268° (W) 21:17:32 437.475
BRITE-PL 25 Nov 21:25:49 21:27:41 12° 267° (W) 21:29:30 437.365/2234.400
AISAT 25 Nov 21:30:16 21:34:46 89° 74° (ENE) 21:39:16 437.250
AIST 2 25 Nov 21:32:10 21:34:38 15° 313° (NW) 21:37:07 435.215
UKube-1 25 Nov 21:37:13 21:40:37 22° 264° (W) 21:44:03 .
FUNcube-1 25 Nov 21:39:13 21:43:16 44° 261° (W) 21:47:16 145.935
HO-68 25 Nov 21:39:58 21:43:31 14° 269° (W) 21:47:06 435.675
NANOSAT C BR1 25 Nov 21:40:47 21:43:32 17° 94° (E) 21:46:17 145.865
CUBEBUG 1 25 Nov 21:44:09 21:48:20 41° 73° (ENE) 21:52:30 437.445
TIGRISAT 25 Nov 21:46:27 21:50:24 31° 97° (E) 21:54:25 435.000
Oscar 11 25 Nov 21:49:49 21:52:15 15° 267° (W) 21:54:41 145.826/435.025
QB50P1 25 Nov 21:50:12 21:53:30 22° 96° (E) 21:56:46 145.935-145.965
UNISAT 6 25 Nov 21:59:45 22:04:02 45° 99° (E) 22:08:24 437.425
BUGSAT 1 25 Nov 22:01:44 22:05:01 23° 96° (E) 22:08:16 437.445
ISS 25 Nov 22:02:14 22:05:10 30° 132° (SE) 22:08:06 145.825
CUBEBUG 2 25 Nov 22:05:59 22:08:41 16° 266° (W) 22:11:23 437.445
UWE-3 25 Nov 22:06:12 22:09:11 19° 265° (W) 22:12:10 435.000/436.395/437.385
POPSAT HIP 1 25 Nov 22:14:23 22:18:25 42° 99° (E) 22:22:25 437.405
50 SAT 25 Nov 22:14:42 22:18:21 32° 262° (W) 22:21:59 437.505
HUMSAT D 25 Nov 22:25:33 22:28:43 21° 265° (W) 22:31:52 437.325/437.525
ANTELSAT 25 Nov 22:28:21 22:32:50 84° 283° (WNW) 22:37:24 437.575/2403.000
ESTCUBE 1 25 Nov 22:38:53 22:43:13 44° 261° (W) 22:47:35 437.505/2401.250
VELOX 1 25 Nov 22:42:54 22:45:24 15° 267° (W) 22:47:55 145.980
POLYITAN 1 25 Nov 22:47:44 22:51:57 72° 284° (WNW) 22:56:09 437.675
RS-15 25 Nov 22:48:40 22:57:37 26° 37° (NE) 23:06:48 29.354- 29.394
QB50P2 25 Nov 22:49:49 22:54:02 68° 284° (WNW) 22:58:13 145.880/145.840
DUCHIFAT 1 25 Nov 22:56:01 23:00:09 57° 285° (WNW) 23:04:16 145.980
TISAT 1 25 Nov 22:59:06 23:03:22 73° 76° (ENE) 23:07:37 437.305
AUBIESAT-1 25 Nov 23:00:51 23:03:39 18° 61° (ENE) 23:06:37 437.475
M-CUBED/EXP-1 PRIME 25 Nov 23:05:35 23:08:44 22° 63° (ENE) 23:12:06 437.505
SPROUT 25 Nov 23:08:31 23:12:50 81° 77° (ENE) 23:17:10 437.525
CUSAT 1 25 Nov 23:09:00 23:13:45 52° 81° (E) 23:20:05 437.405
NANOSAT C BR1 25 Nov 23:15:42 23:19:30 33° 288° (WNW) 23:23:16 145.865
CUBEBUG 1 25 Nov 23:22:14 23:24:51 15° 267° (W) 23:27:28 437.445
TIGRISAT 25 Nov 23:23:37 23:26:57 21° 291° (WNW) 23:30:21 435.000
QB50P1 25 Nov 23:25:50 23:29:20 26° 290° (WNW) 23:32:49 145.935-145.965
DANDE 25 Nov 23:34:18 23:39:00 77° 82° (E) 23:45:25 436.750
MaSat-1 25 Nov 23:35:34 23:36:26 11° 60° (ENE) 23:37:19 437.345
BUGSAT 1 25 Nov 23:37:13 23:40:24 22° 291° (WNW) 23:43:33 437.445
UNISAT 6 25 Nov 23:37:54 23:40:28 15° 293° (WNW) 23:43:04 437.425
JUGNU 25 Nov 23:38:17 23:41:24 15° 173° (S) 23:44:31 437.505
ISS 25 Nov 23:39:04 23:41:49 24° 328° (NNW) 23:44:35 145.825
ITUPSAT 1 25 Nov 23:43:24 23:47:36 31° 70° (ENE) 23:51:50 437.325
SRMSAT 25 Nov 23:50:42 23:51:57 11° 167° (SSE) 23:53:13 437.500
POPSAT HIP 1 25 Nov 23:51:44 23:53:56 14° 294° (WNW) 23:56:08 437.405
SWISSCUBE 25 Nov 23:53:59 23:58:31 44° 72° (ENE) 00:03:06 437.505
Oscar 19 26 Nov 00:20:44 00:24:48 23° 95° (E) 00:28:51 437.125/150
BEESAT 26 Nov 00:24:47 00:29:35 88° 77° (ENE) 00:34:24 436.000
AUBIESAT-1 26 Nov 00:34:41 00:38:19 35° 259° (WSW) 00:42:17 437.475
M-CUBED/EXP-1 PRIME 26 Nov 00:40:14 00:43:37 27° 260° (W) 00:47:18 437.505
KKS-1 26 Nov 00:52:41 00:56:39 33° 71° (ENE) 01:00:38 437.445
CUSAT 1 26 Nov 00:53:29 00:56:50 17° 267° (W) 01:00:43 437.405
RS-15 26 Nov 01:00:24 01:11:45 86° 61° (ENE) 01:23:36 29.354- 29.394
MaSat-1 26 Nov 01:09:51 01:10:49 12° 252° (WSW) 01:11:48 437.345
ITAMSAT 1 26 Nov 01:13:29 01:17:54 28° 96° (E) 01:22:17 435.822/435.867
DANDE 26 Nov 01:21:29 01:22:26 10° 269° (W) 01:23:25 436.750
ITUPSAT 1 26 Nov 01:21:36 01:25:28 24° 264° (W) 01:29:22 437.325
JUGNU 26 Nov 01:26:17 01:29:38 15° 184° (S) 01:33:00 437.505
SWISSCUBE 26 Nov 01:33:32 01:36:34 17° 267° (W) 01:39:37 437.505
SRMSAT 26 Nov 01:36:53 01:40:20 16° 177° (S) 01:43:48 437.500
Gurwin Techsat 1B 26 Nov 01:45:22 01:50:08 33° 97° (E) 01:54:53 435.225
STARS 26 Nov 01:47:58 01:52:22 86° 257° (WSW) 01:56:48 437.465
YUBILEINY 26 Nov 01:54:41 02:03:24 70° 93° (E) 02:12:07 435.215
Oscar 19 26 Nov 01:59:28 02:04:10 37° 290° (WNW) 02:08:53 437.125/150
HORYU 2 26 Nov 02:04:11 02:07:26 19° 95° (E) 02:10:40 437.375
KKS-1 26 Nov 02:30:08 02:33:20 19° 265° (W) 02:36:32 437.445
SO-50 26 Nov 02:52:47 02:57:12 66° 117° (ESE) 03:01:47 436.795
ITAMSAT 1 26 Nov 02:52:50 02:57:19 30° 291° (WNW) 03:01:46 435.822/435.867
PCSat 26 Nov 02:53:44 02:55:41 12° 45° (NE) 02:57:37 145.827
RS-15 26 Nov 03:14:57 03:22:46 22° 259° (WSW) 03:30:51 29.354- 29.394
JUGNU 26 Nov 03:17:13 03:17:52 10° 194° (SSW) 03:18:30 437.505
AO-7 26 Nov 03:17:50 03:25:37 41° 100° (E) 03:33:19 29.400- 29.500
Gurwin Techsat 1B 26 Nov 03:25:32 03:29:56 27° 292° (WNW) 03:34:18 435.225
SRMSAT 26 Nov 03:25:35 03:28:45 15° 187° (S) 03:31:54 437.500
BEESAT 3 26 Nov 03:27:17 03:29:12 13° 46° (NE) 03:31:06 437.485
JAS-2 26 Nov 03:30:12 03:33:27 14° 86° (E) 03:36:31 435.910
MOZHAYETS 4 26 Nov 03:33:43 03:38:06 47° 73° (ENE) 03:42:32
HORYU 2 26 Nov 03:40:07 03:44:08 33° 289° (WNW) 03:48:10 437.375
BEESAT 2 26 Nov 03:42:12 03:44:52 16° 48° (NE) 03:47:31 435.950
YUBILEINY 26 Nov 03:54:23 04:00:54 23° 291° (WNW) 04:07:28 435.215
O/OREOS (USA 219) 26 Nov 04:08:22 04:10:10 12° 98° (E) 04:11:57 437.305
STRAND 1 26 Nov 04:16:02 04:16:38 10° 61° (ENE) 04:17:15 437.568
AIST 2 26 Nov 04:16:54 04:19:56 19° 49° (NE) 04:22:57 435.215
ISS 26 Nov 04:33:09 04:35:24 17° 28° (NNE) 04:37:39 145.825
PCSat 26 Nov 04:34:31 04:39:58 80° 63° (ENE) 04:45:22 145.827
SO-50 26 Nov 04:35:40 04:38:14 15° 315° (NW) 04:40:50 436.795
CUTE-I 26 Nov 04:37:38 04:38:30 10° 90° (E) 04:39:22 437.470
PRISM 26 Nov 04:43:14 04:47:16 50° 74° (ENE) 04:51:22 437.425
BEESAT 3 26 Nov 05:03:42 05:07:51 64° 243° (WSW) 05:11:55 437.485
AO-7 26 Nov 05:10:38 05:18:17 42° 296° (WNW) 05:25:56 29.400- 29.500
JAS-2 26 Nov 05:12:25 05:19:27 80° 285° (WNW) 05:25:34 435.910
MOZHAYETS 4 26 Nov 05:13:06 05:15:33 14° 268° (W) 05:18:01
CUBESAT XI-V 26 Nov 05:15:31 05:19:55 40° 72° (ENE) 05:24:20 437.345
BEESAT 2 26 Nov 05:19:22 05:23:25 47° 245° (WSW) 05:27:23 435.950
Cubesat XI-IV 26 Nov 05:32:37 05:37:39 42° 99° (E) 05:42:39 437.490
O/OREOS (USA 219) 26 Nov 05:44:41 05:49:03 51° 293° (WNW) 05:53:25 437.305
STRAND 1 26 Nov 05:49:53 05:55:02 88° 257° (WSW) 06:00:13 437.568
AIST 2 26 Nov 05:54:42 05:58:45 41° 246° (WSW) 06:02:43 435.215
GONETS M04 26 Nov 05:55:25 05:58:20 12° 76° (ENE) 06:01:15
ISS 26 Nov 06:09:02 06:12:17 58° 224° (SW) 06:15:31 145.825
CUTE-I 26 Nov 06:13:46 06:19:05 79° 285° (WNW) 06:24:22 437.470
PCSat 26 Nov 06:21:07 06:22:36 11° 258° (WSW) 06:24:05 145.827
PRISM 26 Nov 06:21:45 06:23:05 11° 268° (W) 06:24:26 437.425
AIST 1 26 Nov 06:41:14 06:45:33 62° 266° (W) 06:49:48
CUBESAT XI-V 26 Nov 06:54:21 06:57:29 18° 267° (W) 07:00:39 437.345
JAS-2 26 Nov 07:00:25 07:03:06 13° 305° (NW) 07:05:42 435.910
Cubesat XI-IV 26 Nov 07:13:26 07:17:25 22° 294° (WNW) 07:21:23 437.490
HO-68 26 Nov 07:20:24 07:25:03 18° 93° (E) 07:29:40 435.675
CUTE 1.7 & AOD 2 26 Nov 07:27:02 07:27:40 10° 91° (E) 07:28:18 437.475
GONETS M04 26 Nov 07:44:47 07:53:33 78° 94° (E) 08:02:24
BRITE-PL 26 Nov 07:52:19 07:55:25 20° 95° (E) 07:58:33 437.365/2234.400
SEEDS 26 Nov 07:57:17 08:00:35 22° 95° (E) 08:03:53 437.485
AAUSAT CUBESAT 2 26 Nov 08:13:21 08:16:49 24° 96° (E) 08:20:17 437.432
DOVE 4 26 Nov 08:16:35 08:19:45 20° 96° (E) 08:22:58 437.250
DELFI C3 26 Nov 08:19:21 08:20:08 10° 91° (E) 08:20:55 145.870
CANX-2 26 Nov 08:25:01 08:29:17 60° 101° (E) 08:33:32 2200.000
DX 1 26 Nov 08:28:06 08:30:37 15° 94° (E) 08:33:07 434.975-435.025
COMPASS 1 26 Nov 08:28:25 08:32:28 42° 99° (E) 08:36:30 437.405
QB50P1 26 Nov 08:42:21 08:44:19 13° 66° (ENE) 08:46:17 145.935-145.965
TIGRISAT 26 Nov 08:43:57 08:47:01 20° 68° (ENE) 08:50:04 435.000
CINEMA 3 26 Nov 08:49:36 08:53:21 29° 97° (E) 08:57:11 145.822/145.860
BUGSAT 1 26 Nov 08:50:59 08:53:05 14° 66° (ENE) 08:55:11 437.445
ZACube-1 26 Nov 08:56:37 08:59:14 16° 94° (E) 09:01:51 437.345
UNISAT 6 26 Nov 08:57:08 09:00:47 28° 71° (ENE) 09:04:26 437.425
GOMX 1 26 Nov 08:59:20 09:03:30 87° 282° (WNW) 09:07:49 467.674
CUTE 1.7 & AOD 2 26 Nov 08:59:42 09:03:54 56° 285° (WNW) 09:08:06 437.475
POPSAT HIP 1 26 Nov 09:05:33 09:08:59 24° 70° (ENE) 09:12:24 437.405
HO-68 26 Nov 09:06:09 09:13:18 72° 288° (WNW) 09:20:23 435.675
AISAT 26 Nov 09:25:12 09:28:32 21° 95° (E) 09:31:52 437.250
ANTELSAT 26 Nov 09:25:17 09:29:30 61° 75° (ENE) 09:33:43 437.575/2403.000
UKube-1 26 Nov 09:26:44 09:31:05 74° 102° (ESE) 09:35:23 .
FUNcube-1 26 Nov 09:30:24 09:34:23 39° 99° (E) 09:38:27 145.935
BRITE-PL 26 Nov 09:30:29 09:33:55 26° 289° (WNW) 09:37:25 437.365/2234.400
SEEDS 26 Nov 09:32:46 09:36:22 27° 289° (WNW) 09:39:58 437.485
Oscar 11 26 Nov 09:37:46 09:42:06 67° 284° (WNW) 09:46:25 145.826/435.025
POLYITAN 1 26 Nov 09:38:28 09:42:40 60° 75° (ENE) 09:46:51 437.675
QB50P2 26 Nov 09:40:18 09:44:31 63° 75° (ENE) 09:48:44 145.880/145.840
GONETS M04 26 Nov 09:45:12 09:51:16 20° 293° (WNW) 09:57:25
DUCHIFAT 1 26 Nov 09:46:03 09:50:17 73° 76° (ENE) 09:54:32 145.980
AAUSAT CUBESAT 2 26 Nov 09:49:00 09:52:23 24° 290° (WNW) 09:55:46 437.432
DELFI C3 26 Nov 09:51:41 09:55:42 51° 285° (WNW) 09:59:43 145.870
DOVE 4 26 Nov 09:53:57 09:57:30 27° 289° (WNW) 10:01:08 437.250
UWE-3 26 Nov 09:57:18 10:01:33 81° 283° (WNW) 10:05:55 435.000/436.395/437.385
CUBEBUG 2 26 Nov 09:57:55 10:02:09 68° 284° (WNW) 10:06:29 437.445
50 SAT 26 Nov 09:58:03 10:01:53 39° 99° (E) 10:05:43 437.505
DX 1 26 Nov 10:02:57 10:07:00 40° 288° (WNW) 10:11:02 434.975-435.025
CANX-2 26 Nov 10:03:44 10:04:40 11° 295° (WNW) 10:05:37 2200.000
COMPASS 1 26 Nov 10:05:31 10:07:49 14° 293° (WNW) 10:10:07 437.405
NANOSAT C BR1 26 Nov 10:05:34 10:09:48 64° 259° (W) 10:14:01 145.865
HUMSAT D 26 Nov 10:11:41 10:15:52 74° 102° (ESE) 10:20:05 437.325/437.525
QB50P1 26 Nov 10:15:40 10:19:47 47° 260° (W) 10:23:54 145.935-145.965
TIGRISAT 26 Nov 10:19:50 10:23:34 29° 263° (W) 10:27:18 435.000
BUGSAT 1 26 Nov 10:24:05 10:28:10 46° 260° (W) 10:32:16 437.445
CINEMA 3 26 Nov 10:27:18 10:30:23 20° 291° (WNW) 10:33:32 145.822/145.860
ZACube-1 26 Nov 10:31:47 10:35:42 37° 287° (WNW) 10:39:41 437.345
VELOX 1 26 Nov 10:34:21 10:38:43 61° 285° (WNW) 10:43:03 145.980
UNISAT 6 26 Nov 10:34:23 10:37:34 20° 265° (W) 10:40:45 437.425
ESTCUBE 1 26 Nov 10:34:27 10:38:49 46° 99° (E) 10:43:09 437.505/2401.250
POPSAT HIP 1 26 Nov 10:41:18 10:44:47 24° 264° (W) 10:48:16 437.405
TISAT 1 26 Nov 10:48:40 10:50:55 14° 93° (E) 10:53:10 437.305
HO-68 26 Nov 10:57:16 10:59:44 12° 306° (NW) 11:02:12 435.675
SPROUT 26 Nov 10:59:22 11:02:11 17° 94° (E) 11:05:00 437.525
AISAT 26 Nov 11:01:19 11:05:10 30° 290° (WNW) 11:09:00 437.250
FUNcube-1 26 Nov 11:07:54 11:10:26 16° 292° (WNW) 11:12:59 145.935
CUBEBUG 1 26 Nov 11:12:08 11:16:27 65° 285° (WNW) 11:20:44 437.445
SO-50 26 Nov 11:26:59 11:31:19 31° 52° (NE) 11:35:39 436.795
50 SAT 26 Nov 11:34:41 11:36:51 14° 293° (WNW) 11:39:01 437.505
Oscar 19 26 Nov 11:35:13 11:39:23 26° 68° (ENE) 11:43:34 437.125/150
SWISSCUBE 26 Nov 11:58:51 12:01:22 14° 92° (E) 12:03:53 437.505
YUBILEINY 26 Nov 12:08:59 12:16:21 30° 72° (ENE) 12:23:37 435.215
ESTCUBE 1 26 Nov 12:12:43 12:15:16 15° 294° (WNW) 12:17:49 437.505/2401.250
AUBIESAT-1 26 Nov 12:19:55 12:23:59 26° 100° (E) 12:27:55 437.475
CUSAT 1 26 Nov 12:21:23 12:24:09 76° 98° (E) 12:26:45 437.405
TISAT 1 26 Nov 12:22:59 12:26:55 39° 287° (WNW) 12:30:49 437.305
M-CUBED/EXP-1 PRIME 26 Nov 12:25:15 12:29:40 32° 101° (E) 12:33:56 437.505
BEESAT 26 Nov 12:28:29 12:32:35 28° 97° (E) 12:36:39 436.000
ITAMSAT 1 26 Nov 12:28:52 12:33:30 33° 69° (ENE) 12:38:08 435.822/435.867
SPROUT 26 Nov 12:34:29 12:38:21 34° 288° (WNW) 12:42:11 437.525
PHONESAT 2.4 26 Nov 12:35:53 12:38:11 16° 143° (SE) 12:40:29 2401.200-2431.200
VERMONT LUNAR 26 Nov 12:44:02 12:47:03 25° 147° (SSE) 12:50:06 437.305
DANDE 26 Nov 12:49:40 12:52:26 40° 280° (W) 12:54:56 436.750
HORYU 2 26 Nov 13:01:37 13:03:51 14° 65° (ENE) 13:06:05 437.375
Gurwin Techsat 1B 26 Nov 13:03:48 13:08:44 41° 71° (ENE) 13:13:41 435.225
SO-50 26 Nov 13:07:35 13:11:47 29° 248° (WSW) 13:16:00 436.795
